Thunderstorms From: 25-05-2018 23:09 Until: 26-05-2018 15:00 warning for: Thunderstorms Level: Yellow info button

Although rather usual in this region, locally or potentially dangerous phenomena are expected. (such as local winds, summer thunderstorms, rising streams or high waves) Be aware and pay attention to the latest weather updates, especially if you carry out activities exposed to weather or close to a stream or shoreline. 


Meteo18 Weather Cam more information Meteo18 Weather Cam


warning for Thunderstorms more information blitzortung!


Rain radar more information rain snow radar


Visit our other weather sites:

Template documentation
and downloads

And another site



Weather Underground History page Text

Daily Summary for January 1, 2018 Units:  Metric    English   Both
« Previous Day
Next Day »
Daily Weekly Monthly Yearly Custom
  High: Low: Average:
Temperature: -17.8 °C -14.9 °C -13.9 °C
Dew Point: -17.8 °C -15.6 °C -15 °C
Humidity: Humidity % 80 % 88 %
Wind Speed: 0 km/h 0 km/h 29 km/h
Wind Gust: 0 km/h - -
Wind:- - WSW
Pressure: 0 hPa 33948 hPa -
Precipitation: 515.62 mm    
Historical Graphs
 
 
Tabular Data for January 1, 2018
Time Temperature Dew Point Pressure Wind Wind Speed Wind Gust Humidity Rainfall Rate (Hourly)
-17.8 °C -17.8 °C 0 hPa Calm     Humidity % 0 mm
00:01 -13.2 °C -14.4 °C 34279.9 hPa West 33.6 km/h 62.1 km/h 86 % 0 mm
00:07 -13.2 °C -14.4 °C 34279.9 hPa WSW 41.7 km/h 44.1 km/h 86 % 0 mm
00:13 -13.2 °C -14.4 °C 34269.7 hPa WSW 31.4 km/h 41.4 km/h 86 % 0 mm
00:15 -13.2 °C -14.4 °C 34279.9 hPa West 12.7 km/h 46.7 km/h 86 % 0 mm
00:21 -13.2 °C -14.3 °C 34279.9 hPa WSW 20.9 km/h 46.7 km/h 87 % 0 mm
00:29 -13.2 °C -14.3 °C 34293.4 hPa WSW 38.8 km/h 46.7 km/h 87 % 0 mm
00:37 -13.2 °C -14.3 °C 34293.4 hPa SW 36.5 km/h 54.4 km/h 87 % 0 mm
00:43 -13.2 °C -14.3 °C 34293.4 hPa South 26.2 km/h 62.1 km/h 87 % 0 mm
00:49 -13.2 °C -14.3 °C 34293.4 hPa SW 28.5 km/h 41.4 km/h 87 % 0 mm
00:55 -13.2 °C -14.3 °C 34293.4 hPa SW 23 km/h 41.4 km/h 87 % 0 mm
01:01 -13.2 °C -14.3 °C 34293.4 hPa WSW 28.5 km/h 46.7 km/h 87 % 0 mm
01:07 -13.3 °C -14.4 °C 34293.4 hPa West 23 km/h 41.4 km/h 87 % 0 mm
01:10 -13.3 °C -14.4 °C 34293.4 hPa WSW 26.2 km/h 41.4 km/h 87 % 0 mm
01:17 -13.2 °C -14.3 °C 34303.6 hPa SW 31.4 km/h 46.7 km/h 87 % 0 mm
01:23 -13.2 °C -14.4 °C 34293.4 hPa WSW 26.2 km/h 57 km/h 86 % 0 mm
01:29 -13.2 °C -14.6 °C 34293.4 hPa SW 28.5 km/h 57 km/h 85 % 0 mm
01:35 -13.3 °C -14.6 °C 34293.4 hPa SW 20.9 km/h 36.2 km/h 85 % 0 mm
01:41 -13.3 °C -14.6 °C 34293.4 hPa WSW 31.4 km/h 46.7 km/h 85 % 0 mm
01:48 -13.3 °C -14.6 °C 34303.6 hPa West 44.1 km/h 57 km/h 85 % 0 mm
01:53 -13.3 °C -14.8 °C 34303.6 hPa West 44.1 km/h 62.1 km/h 83 % 0 mm
01:59 -13.3 °C -14.8 °C 34303.6 hPa WSW 38.8 km/h 49.2 km/h 83 % 0 mm
02:06 -13.3 °C -14.7 °C 34303.6 hPa WNW 23 km/h 49.2 km/h 84 % 0 mm
02:12 -13.4 °C -14.8 °C 34313.7 hPa WSW 28.5 km/h 44.1 km/h 84 % 0 mm
02:18 -13.4 °C -14.8 °C 34313.7 hPa West 28.5 km/h 41.4 km/h 84 % 0 mm
02:24 -13.5 °C -14.9 °C 34313.7 hPa SW 33.6 km/h 54.4 km/h 84 % 0 mm
02:30 -13.6 °C -14.9 °C 34313.7 hPa WSW 33.6 km/h 57 km/h 84 % 0 mm
02:36 -13.6 °C -15.1 °C 34327.3 hPa West 20.9 km/h 51.8 km/h 83 % 0 mm
02:42 -13.7 °C -15.2 °C 34327.3 hPa SW 33.6 km/h 59.5 km/h 83 % 0 mm
02:48 -13.7 °C -15.2 °C 34337.4 hPa WSW 15.6 km/h 46.7 km/h 83 % 0 mm
02:54 -13.8 °C -15.3 °C 34337.4 hPa WSW 23 km/h 51.8 km/h 83 % 0 mm
03:00 -13.8 °C -15.2 °C 34337.4 hPa WSW 23 km/h 36.2 km/h 84 % 0 mm
03:02 -13.8 °C -15.2 °C 34337.4 hPa WSW 33.6 km/h 46.7 km/h 84 % 0 mm
03:08 -13.8 °C -15.2 °C 34337.4 hPa SW 15.6 km/h 46.7 km/h 84 % 0 mm
03:14 -13.8 °C -15.2 °C 34337.4 hPa WSW 26.2 km/h 38.8 km/h 84 % 0 mm
03:20 -13.8 °C -15.2 °C 34337.4 hPa WSW 36.5 km/h 41.4 km/h 84 % 0 mm
03:26 -13.9 °C -15.3 °C 34337.4 hPa WSW 15.6 km/h 33.6 km/h 84 % 0 mm
03:32 -13.9 °C -15.3 °C 34347.6 hPa WSW 41.7 km/h 64.7 km/h 84 % 0 mm
03:38 -13.9 °C -15.3 °C 34347.6 hPa West 12.7 km/h 36.2 km/h 84 % 0 mm
03:44 -14 °C -15.4 °C 34347.6 hPa SW 17.9 km/h 25.9 km/h 84 % 0 mm
03:52 -14.1 °C -15.3 °C 34347.6 hPa SW 38.8 km/h 41.4 km/h 85 % 0 mm
03:58 -14.1 °C -15.3 °C 34347.6 hPa WSW 17.9 km/h 36.2 km/h 85 % 0 mm
04:04 -14.1 °C -15.3 °C 34361.1 hPa WSW 23 km/h 31.1 km/h 85 % 0 mm
04:10 -14.1 °C -15.3 °C 34361.1 hPa West 12.7 km/h 38.8 km/h 85 % 0 mm
04:16 -14.1 °C -15.3 °C 34361.1 hPa West 17.9 km/h 36.2 km/h 85 % 0 mm
04:22 -14.1 °C -15.4 °C 34361.1 hPa WSW 31.4 km/h 41.4 km/h 85 % 0 mm
04:28 -14.1 °C -15.4 °C 34361.1 hPa WSW 17.9 km/h 41.4 km/h 85 % 0 mm
04:34 -14.1 °C -15.4 °C 34361.1 hPa West 33.6 km/h 46.7 km/h 85 % 0 mm
04:41 -14.1 °C -15.4 °C 34361.1 hPa WSW 38.8 km/h 44.1 km/h 85 % 0 mm
04:46 -14.1 °C -15.4 °C 34371.3 hPa WSW 28.5 km/h 41.4 km/h 85 % 0 mm
04:52 -14.1 °C -15.3 °C 34371.3 hPa SSW 17.9 km/h 33.6 km/h 86 % 0 mm
04:58 -14.2 °C -15.4 °C 34371.3 hPa WSW 20.9 km/h 33.6 km/h 86 % 0 mm
05:04 -14.2 °C -15.4 °C 34371.3 hPa WSW 12.7 km/h 36.2 km/h 86 % 0 mm
05:10 -14.2 °C -15.3 °C 34371.3 hPa SW 38.8 km/h 41.4 km/h 87 % 0 mm
05:16 -14.1 °C -15.2 °C 34371.3 hPa West 23 km/h 51.8 km/h 87 % 0 mm
05:22 -14.2 °C -15.3 °C 34371.3 hPa West 26.2 km/h 49.2 km/h 87 % 0 mm
05:28 -14.2 °C -15.3 °C 34371.3 hPa WSW 36.5 km/h 38.8 km/h 87 % 0 mm
05:34 -14.2 °C -15.4 °C 34371.3 hPa SW 28.5 km/h 46.7 km/h 86 % 0 mm
05:40 -14.2 °C -15.4 °C 34371.3 hPa SW 20.9 km/h 31.1 km/h 86 % 0 mm
05:46 -14.2 °C -15.4 °C 34384.8 hPa WSW 23 km/h 36.2 km/h 86 % 0 mm
05:52 -14.2 °C -15.4 °C 34371.3 hPa WSW 28.5 km/h 36.2 km/h 86 % 0 mm
05:58 -14.1 °C -15.3 °C 34371.3 hPa SSW 15.6 km/h 36.2 km/h 86 % 0 mm
06:04 -14.1 °C -15.3 °C 34371.3 hPa WSW 23 km/h 44.1 km/h 86 % 0 mm
06:10 -14.2 °C -15.4 °C 34371.3 hPa SW 20.9 km/h 31.1 km/h 86 % 0 mm
06:16 -14.2 °C -15.4 °C 34371.3 hPa SW 33.6 km/h 41.4 km/h 86 % 0 mm
06:22 -14.2 °C -15.4 °C 34371.3 hPa WSW 12.7 km/h 44.1 km/h 86 % 0 mm
06:28 -14.2 °C -15.4 °C 34371.3 hPa WSW 31.4 km/h 46.7 km/h 86 % 0 mm
06:34 -14.2 °C -15.4 °C 34371.3 hPa WSW 28.5 km/h 44.1 km/h 86 % 0 mm
06:36 -14.2 °C -15.4 °C 34371.3 hPa WSW 33.6 km/h 49.2 km/h 86 % 0 mm
06:40 -14.1 °C -15.3 °C 34371.3 hPa WSW 41.7 km/h 46.7 km/h 86 % 0 mm
06:46 -14.2 °C -15.4 °C 34371.3 hPa SW 17.9 km/h 31.1 km/h 86 % 0 mm
06:52 -14.2 °C -15.3 °C 34384.8 hPa WSW 12.7 km/h 31.1 km/h 87 % 0 mm
06:58 -14.2 °C -15.3 °C 34384.8 hPa WNW 33.6 km/h 38.8 km/h 87 % 0 mm
07:04 -14.2 °C -15.3 °C 34384.8 hPa WSW 20.9 km/h 28.5 km/h 87 % 0 mm
07:10 -14.3 °C -15.4 °C 34371.3 hPa SW 20.9 km/h 31.1 km/h 87 % 0 mm
07:16 -14.3 °C -15.4 °C 34371.3 hPa SW 17.9 km/h 36.2 km/h 87 % 0 mm
07:22 -14.3 °C -15.3 °C 34371.3 hPa SW 12.7 km/h 28.5 km/h 88 % 0 mm
07:28 -14.3 °C -15.3 °C 34371.3 hPa WSW 12.7 km/h 31.1 km/h 88 % 0 mm
07:34 -14.4 °C -15.4 °C 34371.3 hPa SSW 17.9 km/h 38.8 km/h 88 % 0 mm
07:40 -14.4 °C -15.4 °C 34371.3 hPa WSW 28.5 km/h 36.2 km/h 88 % 0 mm
07:46 -14.4 °C -15.4 °C 34361.1 hPa SW 31.4 km/h 36.2 km/h 88 % 0 mm
07:52 -14.4 °C -15.3 °C 34361.1 hPa SW 33.6 km/h 33.6 km/h 89 % 0 mm
07:56 -14.4 °C -15.3 °C 34361.1 hPa SW 26.2 km/h 36.2 km/h 89 % 0 mm
08:02 -14.4 °C -15.4 °C 34361.1 hPa SW 17.9 km/h 36.2 km/h 89 % 0 mm
08:08 -14.5 °C -15.4 °C 34361.1 hPa SW 10.3 km/h 33.6 km/h 89 % 0 mm
08:14 -14.5 °C -15.4 °C 34347.6 hPa SW 23 km/h 28.5 km/h 89 % 0 mm
08:20 -14.6 °C -15.6 °C 34347.6 hPa SSW 17.9 km/h 33.6 km/h 89 % 0 mm
08:26 -14.7 °C -15.5 °C 34347.6 hPa SW 17.9 km/h 25.9 km/h 90 % 0 mm
08:34 -14.8 °C -15.6 °C 34347.6 hPa South 17.9 km/h 25.9 km/h 91 % 0 mm
08:40 -14.7 °C -15.4 °C 34347.6 hPa SSW 23 km/h 25.9 km/h 91 % 0 mm
08:46 -14.7 °C -15.4 °C 34337.4 hPa SSW 20.9 km/h 33.6 km/h 91 % 0 mm
08:52 -14.6 °C -15.4 °C 34327.3 hPa SSW 33.6 km/h 33.6 km/h 91 % 0 mm
08:58 -14.6 °C -15.3 °C 34327.3 hPa SW 36.5 km/h 36.5 km/h 91 % 0 mm
09:04 -14.5 °C -15.3 °C 34313.7 hPa SSW 23 km/h 41.4 km/h 91 % 0 mm
09:12 -14.4 °C -15.2 °C 34313.7 hPa SSW 20.9 km/h 41.4 km/h 91 % 0 mm
09:18 -14.4 °C -15.2 °C 34303.6 hPa SW 31.4 km/h 41.4 km/h 90 % 0 mm
09:24 -14.3 °C -15.2 °C 34303.6 hPa SW 28.5 km/h 46.7 km/h 90 % 0 mm
09:30 -14.3 °C -15.1 °C 34293.4 hPa SSW 20.9 km/h 36.2 km/h 90 % 0 mm
09:36 -14.2 °C -15.1 °C 34293.4 hPa SW 26.2 km/h 31.1 km/h 90 % 0 mm
09:42 -14.2 °C -15 °C 34279.9 hPa SSW 23 km/h 33.6 km/h 90 % 0 mm
09:48 -14.1 °C -15 °C 34279.9 hPa SSW 20.9 km/h 36.2 km/h 89 % 0 mm
09:54 -14 °C -14.9 °C 34269.7 hPa SSW 31.4 km/h 49.2 km/h 89 % 0 mm
10:00 -13.9 °C -14.9 °C 34256.2 hPa SSW 26.2 km/h 49.2 km/h 88 % 0 mm
10:06 -13.8 °C -14.9 °C 34256.2 hPa SSW 31.4 km/h 46.7 km/h 88 % 0 mm
10:12 -13.8 °C -14.8 °C 34256.2 hPa South 33.6 km/h 49.2 km/h 88 % 0 mm
10:18 -13.8 °C -14.8 °C 34256.2 hPa SSW 46.3 km/h 46.7 km/h 88 % 0 mm
10:22 -13.8 °C -14.8 °C 34256.2 hPa SSW 36.5 km/h 51.8 km/h 88 % 7.62 mm
10:28 -13.8 °C -14.8 °C 34246 hPa South 20.9 km/h 44.1 km/h 89 % 12.7 mm
10:31 -13.9 °C -14.8 °C 34235.8 hPa SSW 33.6 km/h 38.8 km/h 89 % 12.7 mm
10:36 -13.9 °C -14.8 °C 34222.3 hPa SSW 41.7 km/h 46.7 km/h 90 % 12.7 mm
10:42 -14 °C -14.8 °C 34222.3 hPa South 33.6 km/h 59.5 km/h 90 % 12.7 mm
10:48 -14 °C -14.8 °C 34212.1 hPa South 38.8 km/h 51.8 km/h 91 % 12.7 mm
10:55 -14 °C -14.8 °C 34198.6 hPa South 28.5 km/h 46.7 km/h 91 % 20.32 mm
11:00 -14 °C -14.8 °C 34198.6 hPa SSW 28.5 km/h 51.8 km/h 91 % 20.32 mm
11:07 -14.1 °C -14.7 °C 34188.4 hPa SSW 41.7 km/h 54.4 km/h 92 % 20.32 mm
11:13 -14.1 °C -14.7 °C 34178.3 hPa SSW 36.5 km/h 49.2 km/h 92 % 25.4 mm
11:19 -14.1 °C -14.7 °C 34164.7 hPa SSW 41.7 km/h 64.7 km/h 92 % 25.4 mm
11:25 -14 °C -14.6 °C 34154.6 hPa SSW 46.3 km/h 54.4 km/h 93 % 20.32 mm
11:29 -14 °C -14.7 °C 34144.4 hPa SSW 31.4 km/h 54.4 km/h 92 % 20.32 mm
11:35 -14 °C -14.6 °C 34144.4 hPa SW 36.5 km/h 41.4 km/h 93 % 20.32 mm
11:41 -14 °C -14.6 °C 34130.9 hPa SSW 33.6 km/h 36.2 km/h 93 % 20.32 mm
11:47 -14 °C -14.6 °C 34130.9 hPa SSW 31.4 km/h 57 km/h 93 % 25.4 mm
11:53 -13.9 °C -14.6 °C 34130.9 hPa SSW 33.6 km/h 59.5 km/h 93 % 20.32 mm
11:59 -13.9 °C -14.6 °C 34120.7 hPa SSW 46.3 km/h 69.8 km/h 93 % 20.32 mm
12:03 -13.8 °C -14.4 °C 34107.2 hPa SSW 33.6 km/h 67.3 km/h 93 % 25.4 mm
12:07 -13.8 °C -14.4 °C 34107.2 hPa South 38.8 km/h 72.6 km/h 92 % 33.02 mm
12:13 -13.7 °C -14.5 °C 34107.2 hPa SW 54.4 km/h 54.4 km/h 91 % 33.02 mm
12:15 -13.7 °C -14.5 °C 34097 hPa SW 41.7 km/h 69.8 km/h 91 % 38.1 mm
12:21 -13.7 °C -14.4 °C 34086.9 hPa SW 46.3 km/h 69.8 km/h 91 % 38.1 mm
12:27 -13.7 °C -14.4 °C 34086.9 hPa SSW 31.4 km/h 62.1 km/h 91 % 38.1 mm
12:33 -13.7 °C -14.4 °C 34073.3 hPa SW 28.5 km/h 62.1 km/h 92 % 45.72 mm
12:39 -13.7 °C -14.3 °C 34073.3 hPa SSW 31.4 km/h 64.7 km/h 92 % 58.42 mm
12:45 -13.7 °C -14.4 °C 34063.2 hPa SSW 41.7 km/h 59.5 km/h 92 % 63.5 mm
12:51 -13.8 °C -14.4 °C 34049.6 hPa SW 38.8 km/h 49.2 km/h 93 % 83.82 mm
12:57 -13.8 °C -14.4 °C 34049.6 hPa SSW 33.6 km/h 51.8 km/h 93 % 96.52 mm
13:03 -13.8 °C -14.3 °C 34039.5 hPa WSW 23 km/h 36.2 km/h 94 % 109.22 mm
13:09 -13.8 °C -14.3 °C 34029.3 hPa SSW 2.3 km/h 20.8 km/h 94 % 121.92 mm
13:13 -13.8 °C -14.3 °C 34015.8 hPa SSW 7.6 km/h 10.3 km/h 94 % 142.24 mm
13:19 -13.9 °C -14.4 °C 34015.8 hPa SSE 5.1 km/h 10.3 km/h 94 % 160.02 mm
13:25 -13.9 °C -14.3 °C 33992.1 hPa East 2.3 km/h 2.6 km/h 95 % 180.34 mm
13:31 -13.9 °C -14.3 °C 33981.9 hPa Calm   7.7 km/h 95 % 205.74 mm
13:37 -13.9 °C -14.3 °C 33971.7 hPa SW 5.1 km/h 12.9 km/h 95 % 238.76 mm
13:43 -13.8 °C -14.2 °C 33948 hPa WSW 65 km/h 80.3 km/h 95 % 251.46 mm
13:49 -13.8 °C -14.2 °C 34005.6 hPa NNW 38.8 km/h 113.9 km/h 95 % 259.08 mm
13:55 -14.1 °C -14.7 °C 34015.8 hPa West 20.9 km/h 51.8 km/h 93 % 271.78 mm
14:01 -14.1 °C -14.8 °C 33992.1 hPa WSW 23 km/h 31.1 km/h 92 % 264.16 mm
14:07 -14.2 °C -14.8 °C 33992.1 hPa SSW 12.7 km/h 36.2 km/h 92 % 251.46 mm
14:13 -14.3 °C -15 °C 33992.1 hPa SW 20.9 km/h 46.7 km/h 92 % 226.06 mm
14:19 -14.7 °C -15.4 °C 33992.1 hPa WSW 28.5 km/h 59.5 km/h 92 % 200.66 mm
14:25 -14.9 °C -15.5 °C 33981.9 hPa SW 36.5 km/h 57 km/h 93 % 175.26 mm
14:31 -14.9 °C -15.4 °C 33971.7 hPa SW 59.5 km/h 64.7 km/h 94 % 154.94 mm
14:33 -14.9 °C -15.3 °C 33958.2 hPa SW 46.3 km/h 59.5 km/h 95 % 142.24 mm
14:39 -14.7 °C -15.1 °C 33958.2 hPa WSW 54.4 km/h 67.3 km/h 95 % 104.14 mm
14:45 -14.6 °C -15.1 °C 33958.2 hPa WSW 41.7 km/h 64.7 km/h 93 % 83.82 mm
14:51 -14.4 °C -14.9 °C 33971.7 hPa SW 36.5 km/h 80.3 km/h 93 % 58.42 mm
14:57 -14.2 °C -15 °C 33971.7 hPa SW 72.6 km/h 72.6 km/h 91 % 45.72 mm
15:03 -14.2 °C -14.9 °C 33971.7 hPa SW 49.2 km/h 80.3 km/h 91 % 58.42 mm
15:09 -14.2 °C -15 °C 33958.2 hPa WSW 77.7 km/h 80.3 km/h 91 % 58.42 mm
15:15 -14.1 °C -15.1 °C 33958.2 hPa SW 72.6 km/h 75.2 km/h 89 % 58.42 mm
15:21 -14.1 °C -15.1 °C 33958.2 hPa SSW 54.4 km/h 80.3 km/h 89 % 58.42 mm
15:27 -14.2 °C -15.1 °C 33958.2 hPa SW 62 km/h 67.3 km/h 89 % 45.72 mm
15:33 -14.2 °C -15 °C 33958.2 hPa SW 28.5 km/h 64.7 km/h 91 % 38.1 mm
15:39 -14.3 °C -15.1 °C 33971.7 hPa SW 46.3 km/h 46.7 km/h 91 % 38.1 mm
15:45 -14.2 °C -15 °C 33971.7 hPa WSW 46.3 km/h 49.2 km/h 91 % 38.1 mm
15:51 -14.2 °C -15 °C 33981.9 hPa WSW 23 km/h 51.8 km/h 91 % 38.1 mm
15:57 -14.2 °C -15 °C 33971.7 hPa SW 36.5 km/h 54.4 km/h 91 % 33.02 mm
16:03 -14.2 °C -15.1 °C 33971.7 hPa WSW 38.8 km/h 62.1 km/h 90 % 12.7 mm
16:09 -14.2 °C -15.1 °C 33981.9 hPa SW 33.6 km/h 49.2 km/h 90 % 7.62 mm
16:15 -14.3 °C -15.1 °C 33992.1 hPa SW 38.8 km/h 51.8 km/h 90 % 0 mm
16:23 -14.2 °C -15.1 °C 33992.1 hPa WSW 26.2 km/h 54.4 km/h 90 % 0 mm
16:27 -14.2 °C -15.1 °C 33992.1 hPa SW 28.5 km/h 67.3 km/h 90 % 0 mm
16:33 -14.2 °C -14.9 °C 33992.1 hPa WSW 33.6 km/h 62.1 km/h 91 % 7.62 mm
16:39 -14.1 °C -14.8 °C 33992.1 hPa WSW 51.5 km/h 62.1 km/h 92 % 7.62 mm
16:45 -14.1 °C -14.7 °C 34005.6 hPa WSW 26.2 km/h 49.2 km/h 93 % 12.7 mm
16:53 -14.1 °C -14.7 °C 34015.8 hPa WSW 23 km/h 44.1 km/h 93 % 12.7 mm
16:59 -13.9 °C -14.6 °C 34015.8 hPa WSW 41.7 km/h 49.2 km/h 93 % 12.7 mm
17:05 -13.9 °C -14.6 °C 34029.3 hPa West 28.5 km/h 46.7 km/h 93 % 12.7 mm
17:11 -13.9 °C -14.5 °C 34029.3 hPa West 20.9 km/h 69.8 km/h 93 % 12.7 mm
17:17 -13.8 °C -14.5 °C 34049.6 hPa West 36.5 km/h 80.3 km/h 92 % 12.7 mm
17:23 -13.8 °C -14.4 °C 34049.6 hPa WSW 28.5 km/h 51.8 km/h 93 % 20.32 mm
17:29 -13.9 °C -14.5 °C 34049.6 hPa WSW 41.7 km/h 75.2 km/h 93 % 20.32 mm
17:35 -13.8 °C -14.6 °C 34063.2 hPa WSW 51.5 km/h 62.1 km/h 91 % 20.32 mm
17:41 -13.7 °C -14.6 °C 34073.3 hPa WSW 44.1 km/h 51.8 km/h 90 % 20.32 mm
17:47 -13.6 °C -14.7 °C 34073.3 hPa WSW 56.6 km/h 57 km/h 87 % 12.7 mm
17:53 -13.6 °C -14.7 °C 34086.9 hPa West 38.8 km/h 46.7 km/h 87 % 12.7 mm
17:59 -13.6 °C -14.7 °C 34097 hPa West 33.6 km/h 49.2 km/h 88 % 12.7 mm
18:05 -13.7 °C -14.7 °C 34097 hPa West 23 km/h 51.8 km/h 88 % 12.7 mm
18:11 -13.7 °C -14.8 °C 34107.2 hPa NW 26.2 km/h 44.1 km/h 87 % 12.7 mm
18:17 -13.7 °C -14.8 °C 34120.7 hPa West 33.6 km/h 49.2 km/h 87 % 12.7 mm
18:23 -13.6 °C -14.8 °C 34130.9 hPa West 33.6 km/h 54.4 km/h 86 % 7.62 mm
18:29 -13.7 °C -14.8 °C 34144.4 hPa West 20.9 km/h 46.7 km/h 87 % 7.62 mm
18:35 -13.8 °C -14.7 °C 34154.6 hPa WNW 15.6 km/h 31.1 km/h 89 % 0 mm
18:41 -13.8 °C -14.7 °C 34164.7 hPa West 17.9 km/h 46.7 km/h 89 % 0 mm
18:47 -13.7 °C -14.8 °C 34164.7 hPa WNW 23 km/h 31.1 km/h 87 % 0 mm
18:53 -13.7 °C -14.8 °C 34178.3 hPa WNW 20.9 km/h 41.4 km/h 87 % 0 mm
18:59 -13.8 °C -14.8 °C 34188.4 hPa West 26.2 km/h 31.1 km/h 88 % 0 mm
19:05 -13.8 °C -14.9 °C 34188.4 hPa WNW 41.7 km/h 49.2 km/h 87 % 0 mm
19:06 -13.8 °C -14.8 °C 34188.4 hPa West 10.3 km/h 31.1 km/h 88 % 0 mm
19:13 -13.7 °C -15.1 °C 34188.4 hPa West 7.6 km/h 36.2 km/h 85 % 0 mm
19:19 -13.7 °C -15.1 °C 34198.6 hPa West 31.4 km/h 46.7 km/h 84 % 0 mm
19:25 -13.7 °C -15.1 °C 34212.1 hPa West 20.9 km/h 41.4 km/h 84 % 0 mm
19:31 -13.7 °C -15.1 °C 34212.1 hPa West 38.8 km/h 46.7 km/h 84 % 0 mm
19:37 -13.7 °C -15.2 °C 34222.3 hPa West 26.2 km/h 46.7 km/h 83 % 0 mm
19:43 -13.6 °C -15.3 °C 34222.3 hPa WNW 62.1 km/h 62.1 km/h 81 % 7.62 mm
19:49 -13.5 °C -15.3 °C 34235.8 hPa WSW 28.5 km/h 46.7 km/h 80 % 7.62 mm
19:53 -13.5 °C -15.3 °C 34235.8 hPa NW 31.4 km/h 51.8 km/h 80 % 7.62 mm
19:59 -13.6 °C -15.3 °C 34235.8 hPa West 17.9 km/h 36.2 km/h 80 % 7.62 mm
20:05 -13.6 °C -15.4 °C 34246 hPa West 28.5 km/h 54.4 km/h 80 % 7.62 mm
20:11 -13.7 °C -15.4 °C 34256.2 hPa West 20.9 km/h 36.2 km/h 81 % 7.62 mm
20:19 -13.8 °C -15.3 °C 34256.2 hPa WSW 23 km/h 51.8 km/h 83 % 7.62 mm
20:25 -13.8 °C -15.2 °C 34269.7 hPa West 23 km/h 33.6 km/h 84 % 7.62 mm
20:31 -13.8 °C -15.2 °C 34269.7 hPa West 20.9 km/h 36.2 km/h 84 % 7.62 mm
20:37 -13.8 °C -15.2 °C 34279.9 hPa WSW 36.5 km/h 46.7 km/h 84 % 7.62 mm
20:43 -13.8 °C -15.2 °C 34293.4 hPa WSW 26.2 km/h 41.4 km/h 84 % 0 mm
20:45 -13.8 °C -15.2 °C 34293.4 hPa WSW 23 km/h 36.2 km/h 84 % 0 mm
20:51 -13.8 °C -15.2 °C 34293.4 hPa SW 28.5 km/h 33.6 km/h 84 % 0 mm
20:57 -13.9 °C -15.3 °C 34293.4 hPa WSW 28.5 km/h 36.2 km/h 84 % 0 mm
20:59 -13.9 °C -15.3 °C 34293.4 hPa WNW 31.4 km/h 38.8 km/h 84 % 0 mm
21:05 -13.9 °C -15.2 °C 34303.6 hPa West 28.5 km/h 38.8 km/h 85 % 0 mm
21:12 -13.9 °C -15.2 °C 34313.7 hPa WSW 31.4 km/h 38.8 km/h 85 % 0 mm
21:18 -14 °C -15.3 °C 34313.7 hPa WSW 33.6 km/h 41.4 km/h 85 % 0 mm
21:22 -14 °C -15.3 °C 34313.7 hPa West 33.6 km/h 38.8 km/h 85 % 0 mm
21:28 -14 °C -15.2 °C 34313.7 hPa West 26.2 km/h 41.4 km/h 86 % 0 mm
21:34 -14.1 °C -15.3 °C 34327.3 hPa West 31.4 km/h 44.1 km/h 86 % 0 mm
21:42 -14 °C -15.2 °C 34327.3 hPa West 31.4 km/h 38.8 km/h 86 % 0 mm
21:44 -14 °C -15.2 °C 34337.4 hPa West 31.4 km/h 41.4 km/h 86 % 0 mm
21:50 -14 °C -15.2 °C 34337.4 hPa WSW 23 km/h 36.2 km/h 86 % 0 mm
21:56 -13.9 °C -15.2 °C 34337.4 hPa West 26.2 km/h 51.8 km/h 86 % 0 mm
22:02 -14 °C -15.2 °C 34347.6 hPa West 26.2 km/h 44.1 km/h 86 % 0 mm
22:08 -14 °C -15.2 °C 34347.6 hPa West 31.4 km/h 36.2 km/h 86 % 0 mm
22:14 -14 °C -15.2 °C 34361.1 hPa West 23 km/h 33.6 km/h 86 % 0 mm
22:20 -14 °C -15.2 °C 34361.1 hPa West 20.9 km/h 36.2 km/h 86 % 0 mm
22:24 -14 °C -15.2 °C 34361.1 hPa West 23 km/h 46.7 km/h 86 % 0 mm
22:30 -14.1 °C -15.3 °C 34371.3 hPa West 28.5 km/h 36.2 km/h 86 % 0 mm
22:36 -14.1 °C -15.3 °C 34371.3 hPa West 10.3 km/h 36.2 km/h 86 % 0 mm
22:42 -14.1 °C -15.3 °C 34384.8 hPa SW 15.6 km/h 36.2 km/h 86 % 0 mm
22:48 -14.1 °C -15.3 °C 34384.8 hPa West 23 km/h 38.8 km/h 86 % 0 mm
22:54 -14.1 °C -15.3 °C 34384.8 hPa WSW 10.3 km/h 31.1 km/h 86 % 0 mm
22:56 -14.1 °C -15.3 °C 34384.8 hPa WNW 12.7 km/h 36.2 km/h 86 % 0 mm
23:02 -14.1 °C -15.3 °C 34395 hPa West 23 km/h 36.2 km/h 86 % 0 mm
23:08 -14.1 °C -15.3 °C 34395 hPa West 20.9 km/h 38.8 km/h 85 % 0 mm
23:14 -14.1 °C -15.3 °C 34395 hPa West 28.5 km/h 36.2 km/h 85 % 0 mm
23:18 -14 °C -15.4 °C 34395 hPa WSW 28.5 km/h 38.8 km/h 84 % 0 mm
23:24 -14 °C -15.4 °C 34395 hPa WSW 17.9 km/h 25.9 km/h 84 % 0 mm
23:28 -14.1 °C -15.4 °C 34405.1 hPa West 23 km/h 28.5 km/h 84 % 0 mm
23:34 -14.1 °C -15.4 °C 34405.1 hPa WSW 20.9 km/h 25.9 km/h 85 % 0 mm
23:40 -14.2 °C -15.4 °C 34405.1 hPa WSW 20.9 km/h 36.2 km/h 86 % 0 mm
23:46 -14.1 °C -15.4 °C 34418.7 hPa WSW 31.4 km/h 44.1 km/h 85 % 0 mm
23:52 -14.1 °C -15.3 °C 34418.7 hPa WNW 20.9 km/h 31.1 km/h 85 % 0 mm
23:54 -14.1 °C -15.4 °C 34418.7 hPa WNW 12.7 km/h 25.9 km/h 85 % 0 mm
Meteo18
Compliments of Weather Underground - 4 mb

Script developed by  Jim McMurry - jmcmurry@mwt.net Adapted for the template by  Wim van der Kuil - Leuven-Template.eu

You find our weather info also at:

European Weather Network

Weather Underground

Equipment we use:

Weather-station
Davis Vue

Weather-program
Meteobridge

Weather-server
Raspberry PI 2 B+

Provider
1 and 1

Davis Vue

Meteobridge

Raspberry PI 2 B+

1 and 1